Location: Palmerston North
(40.3500°S, 175.6170°E)
Time: 22:26:00
(UTC+13:00)

Resurs 01 Rocket - Pass Details

Date: 24 January 2019
Orbit: 635 x 643 km, 98.1° (Epoch: 21 February)

Event Time Altitude Azimuth Distance (km) Brightness Sun altitude
Rises 23:12:36 0° 180° (S) 2,979 5.9 -22.4°
Reaches altitude 10° 23:15:05 10° 191° (S) 2,060 5.2 -22.7°
Maximum altitude 23:18:51 27° 248° (WSW) 1,244 3.6 -23.1°
Drops below altitude 10° 23:22:34 10° 305° (NW) 2,035 4.2 -23.5°
Enters shadow 23:23:17 - 310° (NW) 2,282 4.4 -23.6°
